Weather History for KAND - February, 2013

Change the Weather History Date:

Tuesday, February 5, 2013

  Actual Average Record
Temperature  
Mean Temperature 46 °F -  
Max Temperature 61 °F 53 °F 71 °F (2012)
Min Temperature 30 °F 32 °F 15 °F (1966)
Degree Days  
Heating Degree Days 20    
Moisture  
Dew Point 38 °F    
Average Humidity 75    
Maximum Humidity 96    
Minimum Humidity 51    
Precipitation  
Precipitation 0.00 in - - ()
Sea Level Pressure  
Sea Level Pressure 29.99 in    
Wind  
Wind Speed 5 mph (WSW)    
Max Wind Speed 16 mph    
Max Gust Speed 24 mph    
Visibility 10 miles    
Events      
Averages and records for this station are not official NWS values.
T = Trace of Precipitation, MM = Missing Value Source: NWS Daily Summary

Daily Weather History Graph

Daily Weather History Graph

Search for Another Location

Airport or City:

Trip Planner

Search our weather history database for the weather conditions in past years. The results will help you decide how hot, cold, wet, or windy it might be!

Date:

Astronomy

Feb. 05, 2013 Rise Set
Actual Time 7:25 AM EST 6:04 PM EST
Civil Twilight 6:59 AM EST 6:31 PM EST
Nautical Twilight 6:29 AM EST 7:00 PM EST
Astronomical Twilight 5:59 AM EST 7:30 PM EST
Moon 3:01 AM EST 1:25 PM EST
Length of Visible Light 11h 31m
Length of Day
10h 39m
Waning Crescent, 27% of the Moon is Illuminated
Feb 5
Waning Crescent
Feb 10
New
Feb 17
First Quarter
Feb 25
Full
Mar 4
Last Quarter

Hourly Weather History & Observations

Time (EST) Temp. Windchill Dew Point Humidity Pressure Visibility Wind Dir Wind Speed Gust Speed Precip Events Conditions
12:56 AM 36.0 °F 33.3 °F 30.9 °F 82% 30.00 in 10.0 mi SSW 3.5 mph - N/A   Overcast
1:56 AM 37.0 °F 34.5 °F 30.9 °F 79% 29.99 in 10.0 mi West 3.5 mph - N/A   Overcast
2:56 AM 35.1 °F - 30.0 °F 82% 29.98 in 10.0 mi Calm Calm - N/A   Clear
3:56 AM 32.0 °F - 30.0 °F 92% 29.98 in 10.0 mi Calm Calm - N/A   Clear
4:56 AM 30.9 °F - 28.9 °F 92% 29.97 in 10.0 mi Calm Calm - N/A   Clear
5:56 AM 33.1 °F - 30.0 °F 89% 29.98 in 10.0 mi Calm Calm - N/A   Clear
6:56 AM 33.1 °F - 28.9 °F 85% 29.99 in 10.0 mi Calm Calm - N/A   Mostly Cloudy
7:56 AM 30.9 °F - 28.0 °F 89% 30.01 in 10.0 mi Calm Calm - N/A   Partly Cloudy
8:56 AM 39.0 °F 36.8 °F 33.1 °F 79% 30.02 in 10.0 mi SSW 3.5 mph - N/A   Overcast
9:56 AM 45.0 °F 43.5 °F 34.0 °F 65% 30.02 in 10.0 mi SW 3.5 mph - N/A   Overcast
10:56 AM 55.0 °F - 37.0 °F 51% 30.01 in 10.0 mi West 12.7 mph 19.6 mph N/A   Scattered Clouds
11:56 AM 57.0 °F - 39.9 °F 53% 30.00 in 10.0 mi WSW 16.1 mph 21.9 mph N/A   Scattered Clouds
12:56 PM 57.9 °F - 41.0 °F 53% 29.99 in 10.0 mi West 16.1 mph 21.9 mph N/A   Overcast
1:56 PM 57.9 °F - 43.0 °F 58% 29.96 in 10.0 mi WSW 16.1 mph - N/A   Partly Cloudy
2:56 PM 60.1 °F - 44.1 °F 55% 29.95 in 10.0 mi WSW 13.8 mph - N/A   Clear
3:56 PM 61.0 °F - 44.1 °F 54% 29.94 in 10.0 mi WSW 16.1 mph 24.2 mph N/A   Clear
4:56 PM 60.1 °F - 46.0 °F 60% 29.94 in 10.0 mi SW 16.1 mph - N/A   Partly Cloudy
5:56 PM 57.0 °F - 46.0 °F 67% 29.95 in 10.0 mi SW 12.7 mph - N/A   Clear
6:56 PM 54.0 °F - 46.0 °F 75% 29.97 in 10.0 mi WSW 6.9 mph - N/A   Clear
8:56 PM 51.1 °F - 46.0 °F 83% 30.00 in 10.0 mi WSW 4.6 mph - N/A   Clear
9:56 PM 46.0 °F - 44.1 °F 93% 30.00 in 10.0 mi Calm Calm - N/A   Clear
10:56 PM 46.0 °F - 45.0 °F 96% 30.01 in 10.0 mi Calm Calm - N/A   Clear
11:56 PM 41.0 °F - 39.9 °F 96% 30.01 in 3.0 mi Calm Calm - N/A   Clear